AC0ID-13 Weather Reports


Display with metric or nautical units.
time (UTC)temp
F
wind
direction
speed
MPH
gust
MPH
rain 1hr
in
rain 24hr
in
rain mn
in
humidity
%
barometer
mb
20260506153010 42 325 2.0 9.0 0.00 0.00 0.00 50 1016.4
20260506152505 42 257 1.0 11.0 0.00 0.00 0.00 51 1016.3
20260506152006 42 234 2.0 11.0 0.00 0.00 0.00 51 1016.3
20260506151511 42 248 1.0 11.0 0.00 0.00 0.00 51 1016.3
20260506151006 42 248 2.0 11.0 0.00 0.00 0.00 51 1016.3
20260506150507 42 263 3.0 9.0 0.00 0.00 0.00 49 1016.3
20260506150020 42 302 2.0 7.0 0.00 0.00 0.00 51 1016.3
20260506145510 42 279 1.0 11.0 0.00 0.00 0.00 51 1016.3
20260506145007 42 352 0.0 11.0 0.00 0.00 0.00 51 1016.4
20260506144525 41 319 1.0 9.0 0.00 0.00 0.00 52 1016.4
20260506144003 41 288 1.0 8.0 0.00 0.00 0.00 51 1016.4
20260506143506 41 352 2.0 9.0 0.00 0.00 0.00 52 1016.5
20260506143023 41 253 2.0 9.0 0.00 0.00 0.00 51 1016.5
20260506142509 41 26 2.0 8.0 0.00 0.00 0.00 51 1016.5
20260506142006 41 277 1.0 8.0 0.00 0.00 0.00 52 1016.4
20260506141503 41 219 1.0 7.0 0.00 0.00 0.00 52 1016.3
20260506141002 41 49 1.0 4.0 0.00 0.00 0.00 54 1016.3
20260506140505 40 117 0.0 4.0 0.00 0.00 0.00 56 1016.3
20260506140005 40 29 1.0 6.0 0.00 0.00 0.00 56 1016.2
20260506135501 40 286 1.0 7.0 0.00 0.00 0.00 57 1016.2
20260506135005 39 284 1.0 9.0 0.00 0.00 0.00 59 1016.2
20260506134504 38 19 3.0 9.0 0.00 0.00 0.00 60 1016.1
20260506134003 38 352 1.0 6.0 0.00 0.00 0.00 62 1016.1
20260506133502 37 322 0.0 4.0 0.00 0.00 0.00 64 1016.1
20260506133003 36 292 1.0 5.0 0.00 0.00 0.00 65 1015.9
20260506132503 36 305 0.0 5.0 0.00 0.00 0.00 65 1015.9
20260506132003 35 322 1.0 5.0 0.00 0.00 0.00 67 1015.9
20260506131509 35 232 0.0 2.0 0.00 0.00 0.00 68 1015.9
20260506131007 34 317 1.0 5.0 0.00 0.00 0.00 69 1015.9
20260506130504 34 350 1.0 5.0 0.00 0.00 0.00 70 1015.8
20260506130004 33 327 0.0 3.0 0.00 0.00 0.00 70 1015.9
20260506125503 33 201 1.0 5.0 0.00 0.00 0.00 71 1015.9
20260506125007 33 248 1.0 5.0 0.00 0.00 0.00 72 1015.8
20260506124504 32 334 1.0 5.0 0.00 0.00 0.00 73 1015.7
20260506124003 32 13 1.0 4.0 0.00 0.00 0.00 73 1015.6
20260506123504 31 329 2.0 5.0 0.00 0.00 0.00 73 1015.7
20260506123003 31 275 1.0 5.0 0.00 0.00 0.00 73 1015.6
20260506122502 31 321 0.0 3.0 0.00 0.00 0.00 73 1015.4
20260506122003 30 333 0.0 3.0 0.00 0.00 0.00 73 1015.4
20260506121504 30 333 1.0 4.0 0.00 0.00 0.00 73 1015.3
20260506121003 30 328 0.0 4.0 0.00 0.00 0.00 73 1015.4
20260506120503 30 338 0.0 2.0 0.00 0.00 0.00 72 1015.4
20260506120010 29 342 0.0 2.0 0.00 0.00 0.00 71 1015.2
20260506115506 29 22 0.0 2.0 0.00 0.00 0.00 71 1015.1
20260506115003 29 26 0.0 2.0 0.00 0.00 0.00 70 1015.0
20260506114511 29 309 0.0 2.0 0.00 0.00 0.00 70 1014.9
20260506114004 29 309 0.0 1.0 0.00 0.00 0.00 69 1014.7
20260506113503 29 309 0.0 1.0 0.00 0.00 0.00 69 1014.7
20260506113007 29 309 0.0 1.0 0.00 0.00 0.00 69 1014.7
20260506112511 29 309 0.0 2.0 0.00 0.00 0.00 68 1014.7
20260506112006 29 309 0.0 2.0 0.00 0.00 0.00 68 1014.6
20260506111507 30 309 0.0 1.0 0.00 0.00 0.00 68 1014.7
20260506111003 30 309 0.0 1.0 0.00 0.00 0.00 67 1014.8
20260506110507 30 309 0.0 1.0 0.00 0.00 0.00 67 1014.9
20260506110008 30 309 0.0 1.0 0.00 0.00 0.00 67 1014.8
20260506105503 30 309 0.0 0.0 0.00 0.00 0.00 67 1014.7
20260506105007 30 309 0.0 0.0 0.00 0.00 0.00 67 1014.8
20260506104512 30 309 0.0 0.0 0.00 0.00 0.00 66 1014.7
20260506104003 31 309 0.0 0.0 0.00 0.00 0.00 67 1014.7
20260506103504 31 309 0.0 0.0 0.00 0.00 0.00 67 1014.7
20260506103014 31 309 0.0 1.0 0.00 0.00 0.00 66 1014.6
20260506102508 31 309 0.0 1.0 0.00 0.00 0.00 67 1014.5
20260506102004 31 338 0.0 0.0 0.00 0.00 0.00 66 1014.5
20260506101514 31 338 0.0 1.0 0.00 0.00 0.00 66 1014.4
20260506101006 31 338 0.0 1.0 0.00 0.00 0.00 66 1014.4
20260506100507 32 324 0.0 0.0 0.00 0.00 0.00 66 1014.6
20260506100009 32 324 0.0 0.0 0.00 0.00 0.00 66 1014.6
20260506095503 32 324 0.0 2.0 0.00 0.00 0.00 65 1014.4
20260506095004 32 324 0.0 2.0 0.00 0.00 0.00 65 1014.4
20260506094505 32 341 0.0 1.0 0.00 0.00 0.00 65 1014.3
20260506094003 32 336 0.0 3.0 0.00 0.00 0.00 65 1014.3
20260506093507 32 350 0.0 3.0 0.00 0.00 0.00 65 1014.1
20260506093015 33 352 0.0 2.0 0.00 0.00 0.00 65 1014.1
20260506092503 33 11 0.0 3.0 0.00 0.00 0.00 65 1014.3
20260506092006 33 20 0.0 3.0 0.00 0.00 0.00 64 1014.3
20260506091516 33 343 0.0 3.0 0.00 0.00 0.00 64 1014.2
20260506091003 33 327 0.0 2.0 0.00 0.00 0.00 64 1014.2
20260506090505 33 352 0.0 2.0 0.00 0.00 0.00 63 1014.1
20260506090019 33 321 0.0 2.0 0.00 0.00 0.00 63 1013.9
20260506085505 34 243 0.0 1.0 0.00 0.00 0.00 63 1013.8
20260506085002 34 243 0.0 2.0 0.00 0.00 0.00 63 1013.9
20260506084515 34 340 0.0 3.0 0.00 0.00 0.00 64 1014.0
20260506084010 34 344 0.0 3.0 0.00 0.00 0.00 63 1013.9
20260506083504 34 352 0.0 2.0 0.00 0.00 0.00 63 1014.0
20260506083008 34 352 0.0 2.0 0.00 0.00 0.00 63 1013.9
20260506082504 34 15 0.0 2.0 0.00 0.00 0.00 63 1013.9
20260506082003 34 13 0.0 2.0 0.00 0.00 0.00 63 1013.9
20260506081506 35 352 0.0 3.0 0.00 0.00 0.00 63 1013.8
20260506081008 35 320 0.0 3.0 0.00 0.00 0.00 63 1013.7
20260506080508 35 317 0.0 3.0 0.00 0.00 0.00 63 1013.7
20260506073507 35 360 1.0 3.0 0.00 0.00 0.00 62 1013.6
20260506073022 36 339 0.0 3.0 0.00 0.00 0.00 61 1013.6
20260506072510 36 283 0.0 2.0 0.00 0.00 0.00 61 1013.5
20260506072004 36 315 0.0 2.0 0.00 0.00 0.00 60 1013.5
20260506071510 36 5 0.0 4.0 0.00 0.00 0.00 60 1013.4
20260506071009 36 13 0.0 4.0 0.00 0.00 0.00 60 1013.3
20260506070504 37 340 0.0 3.0 0.00 0.00 0.00 59 1013.4
20260506062509 38 340 0.0 3.0 0.00 0.00 0.00 57 1013.1
20260506062009 38 282 0.0 3.0 0.00 0.00 0.00 57 1013.2
20260506061531 38 5 0.0 3.0 0.00 0.00 0.00 56 1013.1
20260506061011 38 329 0.0 3.0 0.00 0.00 0.00 56 1013.1
20260506060506 39 307 0.0 3.0 0.00 0.00 0.00 56 1013.2
20260506051004 40 338 0.0 2.0 0.00 0.00 0.00 53 1012.7
20260506050503 41 317 0.0 3.0 0.00 0.00 0.00 52 1012.7
20260506045004 41 318 0.0 3.0 0.00 0.00 0.00 52 1012.5
20260506044506 41 340 0.0 2.0 0.00 0.00 0.00 51 1012.5
20260506044005 42 310 0.0 2.0 0.00 0.00 0.00 51 1012.5
20260506043505 42 330 0.0 3.0 0.00 0.00 0.00 51 1012.5
20260506043006 42 327 0.0 3.0 0.00 0.00 0.00 50 1012.5
20260506042505 42 344 0.0 5.0 0.00 0.00 0.00 50 1012.5
20260506042011 42 315 1.0 5.0 0.00 0.00 0.00 50 1012.4
20260506041504 42 342 1.0 5.0 0.00 0.00 0.00 50 1012.4
20260506041006 42 5 0.0 5.0 0.00 0.00 0.00 49 1012.3
20260506040503 42 291 0.0 5.0 0.00 0.00 0.00 49 1012.3
20260506040010 43 327 1.0 9.0 0.00 0.00 0.00 49 1012.2
20260506035502 43 77 0.0 9.0 0.00 0.00 0.00 49 1012.3
20260506035006 43 284 1.0 9.0 0.00 0.00 0.00 49 1012.3
20260506034508 43 138 0.0 4.0 0.00 0.00 0.00 48 1012.2
20260506034004 43 315 0.0 6.0 0.00 0.00 0.00 48 1012.2
20260506033503 43 269 1.0 6.0 0.00 0.00 0.00 48 1012.1
20260506033013 44 251 0.0 2.0 0.00 0.00 0.00 48 1012.0
20260506032504 44 318 0.0 2.0 0.00 0.00 0.00 47 1012.0
20260506032003 44 351 0.0 4.0 0.00 0.00 0.00 47 1012.0
20260506031524 44 286 0.0 4.0 0.00 0.00 0.00 47 1012.0
20260506031008 44 320 1.0 3.0 0.00 0.00 0.00 47 1012.0
20260506030506 45 306 0.0 2.0 0.00 0.00 0.00 46 1012.0
20260506030006 45 348 0.0 2.0 0.00 0.00 0.00 46 1011.9
20260506025504 45 320 0.0 3.0 0.00 0.00 0.00 46 1012.0
20260506025004 45 324 0.0 4.0 0.00 0.00 0.00 45 1011.9
20260506024513 45 322 0.0 4.0 0.00 0.00 0.00 45 1011.9
20260506024004 45 315 0.0 3.0 0.00 0.00 0.00 45 1011.9
20260506023504 46 338 0.0 4.0 0.00 0.00 0.00 44 1011.8
20260506023012 46 310 0.0 4.0 0.00 0.00 0.00 44 1011.8
20260506022506 46 326 0.0 3.0 0.00 0.00 0.00 44 1011.6
20260506022004 46 331 0.0 3.0 0.00 0.00 0.00 43 1011.5
20260506021516 46 339 0.0 5.0 0.00 0.00 0.00 44 1011.5
20260506021005 46 325 0.0 5.0 0.00 0.00 0.00 43 1011.5
20260506020511 46 301 1.0 6.0 0.00 0.00 0.00 43 1011.4
20260506020017 46 336 1.0 6.0 0.00 0.00 0.00 43 1011.4
20260506015506 47 28 0.0 4.0 0.00 0.00 0.00 43 1011.3
20260506015003 47 321 0.0 9.0 0.00 0.00 0.00 42 1011.2
20260506014514 47 308 3.0 9.0 0.00 0.00 0.00 42 1011.1
20260506014003 47 352 1.0 8.0 0.00 0.00 0.00 42 1011.0
20260506013507 47 304 1.0 8.0 0.00 0.00 0.00 42 1010.9
20260506013007 47 313 2.0 8.0 0.00 0.00 0.00 41 1010.8
20260506012503 47 334 2.0 12.0 0.00 0.00 0.00 41 1010.9
20260506012004 47 317 1.0 12.0 0.00 0.00 0.00 41 1010.9
20260506011503 48 348 2.0 10.0 0.00 0.00 0.00 41 1010.8
20260506011005 48 332 2.0 10.0 0.00 0.00 0.00 41 1010.8
20260506010505 48 26 1.0 10.0 0.00 0.00 0.00 41 1010.8
20260506010014 48 14 1.0 8.0 0.00 0.00 0.00 41 1010.7
20260506005506 48 344 0.0 8.0 0.00 0.00 0.00 40 1010.6
20260506005009 48 346 2.0 11.0 0.00 0.00 0.00 40 1010.6
20260506004526 48 28 2.0 11.0 0.00 0.00 0.00 40 1010.4
20260506004013 48 352 2.0 7.0 0.00 0.00 0.00 40 1010.4
20260506003507 48 11 3.0 7.0 0.00 0.00 0.00 40 1010.3
20260506003018 49 296 1.0 4.0 0.00 0.00 0.00 40 1010.3
20260506002506 49 5 1.0 4.0 0.00 0.00 0.00 40 1010.3
20260506002005 49 35 1.0 6.0 0.00 0.00 0.00 39 1010.2
20260506001506 49 344 1.0 6.0 0.00 0.00 0.00 39 1010.3
20260506001004 49 350 1.0 5.0 0.00 0.00 0.00 39 1010.2
20260506000505 49 321 1.0 5.0 0.00 0.00 0.00 39 1010.1
20260506000008 49 40 1.0 7.0 0.00 0.00 0.00 39 1010.2
20260505235507 50 340 1.0 7.0 0.00 0.00 0.00 39 1010.2
20260505235004 50 288 2.0 8.0 0.00 0.00 0.00 40 1010.1
20260505234518 50 331 1.0 8.0 0.00 0.00 0.00 39 1010.1
20260505234006 50 242 2.0 5.0 0.00 0.00 0.00 38 1010.2
20260505233506 50 232 1.0 8.0 0.00 0.00 0.00 38 1010.1
20260505233023 50 215 1.0 8.0 0.00 0.00 0.00 39 1010.2
20260505232509 50 339 2.0 10.0 0.00 0.00 0.00 39 1010.1
20260505232006 50 191 1.0 10.0 0.00 0.00 0.00 38 1010.2
20260505231528 50 74 1.0 10.0 0.00 0.00 0.00 38 1010.0
20260505231014 50 312 2.0 10.0 0.00 0.00 0.00 38 1010.1
20260505230504 50 346 1.0 10.0 0.00 0.00 0.00 39 1010.1
20260505230021 51 227 2.0 10.0 0.00 0.00 0.00 39 1010.0
20260505225507 51 360 1.0 8.0 0.00 0.00 0.00 37 1010.1
20260505225005 51 223 1.0 8.0 0.00 0.00 0.00 38 1010.1
20260505224514 51 48 2.0 11.0 0.00 0.00 0.00 38 1010.1
20260505224008 51 14 2.0 11.0 0.00 0.00 0.00 37 1010.2
20260505223507 52 348 2.0 12.0 0.00 0.00 0.00 37 1010.2
20260505223014 52 344 2.0 12.0 0.00 0.00 0.00 37 1010.2
20260505222506 52 309 1.0 4.0 0.00 0.00 0.00 38 1010.0
20260505222010 52 346 1.0 5.0 0.00 0.00 0.00 38 1010.0
20260505221525 52 244 1.0 12.0 0.00 0.00 0.00 38 1010.0
20260505221006 52 161 3.0 12.0 0.00 0.00 0.00 36 1010.0
20260505220510 52 338 1.0 7.0 0.00 0.00 0.00 38 1010.0
20260505220030 52 304 1.0 7.0 0.00 0.00 0.00 38 1009.9
20260505215505 52 285 2.0 8.0 0.00 0.00 0.00 37 1010.0
20260505215005 53 263 3.0 8.0 0.00 0.00 0.00 37 1010.0
20260505214512 53 288 2.0 6.0 0.00 0.00 0.00 35 1010.1
20260505214006 54 17 1.0 6.0 0.00 0.00 0.00 35 1010.1
20260505213508 54 146 2.0 7.0 0.00 0.00 0.00 34 1010.0
20260505213017 54 217 1.0 7.0 0.00 0.00 0.00 35 1010.1
20260505212506 54 198 1.0 8.0 0.00 0.00 0.00 36 1010.1
20260505212007 54 31 1.0 10.0 0.00 0.00 0.00 37 1010.1
20260505211518 54 348 3.0 10.0 0.00 0.00 0.00 35 1010.0
20260505211007 54 181 2.0 10.0 0.00 0.00 0.00 35 1010.1
20260505210511 54 329 2.0 10.0 0.00 0.00 0.00 36 1010.0
20260505210024 54 215 2.0 10.0 0.00 0.00 0.00 37 1010.2
20260505205511 53 286 2.0 10.0 0.00 0.00 0.00 38 1010.2
20260505205011 53 181 2.0 10.0 0.00 0.00 0.00 36 1010.3
20260505204533 54 332 4.0 10.0 0.00 0.00 0.00 36 1010.2
20260505204008 53 277 2.0 4.0 0.00 0.00 0.00 38 1010.3
20260505203511 54 325 1.0 9.0 0.00 0.00 0.00 35 1010.3
20260505203030 53 278 2.0 15.0 0.00 0.00 0.00 36 1010.3
20260505202506 54 352 4.0 15.0 0.00 0.00 0.00 35 1010.4
20260505202011 54 304 2.0 8.0 0.00 0.00 0.00 37 1010.4
20260505201520 54 348 2.0 9.0 0.00 0.00 0.00 37 1010.5
20260505201006 53 317 2.0 9.0 0.00 0.00 0.00 37 1010.6
20260505200509 53 360 2.0 9.0 0.00 0.00 0.00 36 1010.7
20260505200035 53 320 3.0 9.0 0.00 0.00 0.00 37 1010.6
20260505195509 53 271 2.0 11.0 0.00 0.00 0.00 36 1010.6
20260505195007 53 234 1.0 11.0 0.00 0.00 0.00 35 1010.7
20260505194524 53 25 1.0 8.0 0.00 0.00 0.00 36 1010.6
20260505194006 53 257 2.0 7.0 0.00 0.00 0.00 36 1010.7
20260505193506 53 15 2.0 7.0 0.00 0.00 0.00 35 1010.6
20260505193010 54 242 2.0 7.0 0.00 0.00 0.00 33 1010.8
20260505192505 53 185 1.0 8.0 0.00 0.00 0.00 36 1010.7
20260505192005 52 37 1.0 8.0 0.00 0.00 0.00 37 1010.9
20260505191512 52 304 1.0 5.0 0.00 0.00 0.00 37 1010.8
20260505191012 52 249 1.0 9.0 0.00 0.00 0.00 39 1010.8
20260505190505 52 168 3.0 9.0 0.00 0.00 0.00 36 1010.8
20260505190011 52 221 2.0 11.0 0.00 0.00 0.00 36 1010.9
20260505185507 52 263 1.0 11.0 0.00 0.00 0.00 38 1010.9
20260505185005 51 176 1.0 7.0 0.00 0.00 0.00 37 1010.8
20260505184510 51 170 1.0 13.0 0.00 0.00 0.00 38 1010.9
20260505184007 51 156 1.0 13.0 0.00 0.00 0.00 39 1010.9
20260505183506 51 343 3.0 12.0 0.00 0.00 0.00 36 1010.9
20260505183012 51 248 2.0 8.0 0.00 0.00 0.00 38 1010.8
20260505182502 51 5 2.0 8.0 0.00 0.00 0.00 38 1010.8
20260505182006 51 270 3.0 11.0 0.00 0.00 0.00 36 1010.7
20260505181515 52 22 2.0 11.0 0.00 0.00 0.00 34 1010.7
20260505181007 52 261 3.0 9.0 0.00 0.00 0.00 36 1010.6
20260505180505 53 139 1.0 11.0 0.00 0.00 0.00 38 1010.6
20260505180016 53 44 2.0 11.0 0.00 0.00 0.00 33 1010.6
20260505175510 54 305 2.0 10.0 0.00 0.00 0.00 37 1010.5
20260505175004 52 42 2.0 13.0 0.00 0.00 0.00 38 1010.6
20260505174512 52 339 4.0 13.0 0.00 0.00 0.00 34 1010.6
20260505174008 52 90 3.0 9.0 0.00 0.00 0.00 37 1010.6
20260505173506 52 298 1.0 10.0 0.00 0.00 0.00 38 1010.5
20260505173014 52 259 3.0 10.0 0.00 0.00 0.00 35 1010.4
20260505172506 52 346 3.0 10.0 0.00 0.00 0.00 35 1010.5
20260505172009 52 137 1.0 12.0 0.00 0.00 0.00 35 1010.5
20260505171518 52 284 2.0 12.0 0.00 0.00 0.00 37 1010.6
20260505171007 53 341 5.0 12.0 0.00 0.00 0.00 33 1010.6
20260505170503 53 271 1.0 9.0 0.00 0.00 0.00 36 1010.7
20260505170018 52 293 3.0 10.0 0.00 0.00 0.00 37 1010.7
20260505165506 52 131 1.0 10.0 0.00 0.00 0.00 36 1010.7
20260505165009 51 352 2.0 10.0 0.00 0.00 0.00 38 1010.7
20260505164518 51 295 2.0 8.0 0.00 0.00 0.00 38 1010.7
20260505164006 51 181 1.0 11.0 0.00 0.00 0.00 36 1010.8
20260505163507 51 296 2.0 11.0 0.00 0.00 0.00 37 1010.7
20260505163018 51 66 1.0 14.0 0.00 0.00 0.00 38 1010.7
20260505162506 51 252 5.0 14.0 0.00 0.00 0.00 36 1010.9
20260505162006 52 295 1.0 10.0 0.00 0.00 0.00 40 1010.9
20260505161519 51 46 2.0 9.0 0.00 0.00 0.00 39 1011.0
20260505161007 51 348 1.0 12.0 0.00 0.00 0.00 39 1010.9
20260505160507 50 344 3.0 12.0 0.00 0.00 0.00 38 1010.9